When you browse on this site, cookies collect data to enhance your experience and personalize the content and advertising you see.
Visit our Privacy Policy to learn more. By continuing to use the site, you agree to this use of cookies and data.
  • In Czech Republic
  • List of Countries
  • For 7 days
  • Water Temperature
  • Satellite Maps
  • Weather Map
  • Weather Widgets
  • user-avatar
    Login

    Hourly Weather Mendoza

    Today, 18 November, Sunday

    Time Temperature Precipitation Wind Pressure Humidity
    00:00 +17°C° 0 mm 2 mps 700 mmHg 44%
    01:00 +16°C° 0 mm 2 mps 700 mmHg 44%
    02:00 +16°C° 0 mm 2 mps 700 mmHg 45%
    03:00 +15°C° 0 mm 2 mps 700 mmHg 47%
    04:00 +15°C° 0 mm 2 mps 700 mmHg 48%
    05:00 +16°C° 0 mm 2 mps 700 mmHg 43%
    06:00 +17°C° 0 mm 3 mps 700 mmHg 38%
    07:00 +19°C° 0 mm 3 mps 700 mmHg 34%
    08:00 +20°C° 0 mm 4 mps 700 mmHg 31%
    09:00 +21°C° 0 mm 4 mps 700 mmHg 28%
    10:00 +23°C° 0 mm 5 mps 700 mmHg 26%
    11:00 +25°C° 0 mm 5 mps 699 mmHg 24%
    12:00 +26°C° 0 mm 5 mps 699 mmHg 23%
    13:00 +27°C° 0 mm 5 mps 698 mmHg 21%
    14:00 +27°C° 0 mm 5 mps 698 mmHg 21%
    15:00 +28°C° 0 mm 4 mps 698 mmHg 20%
    16:00 +28°C° 0 mm 4 mps 697 mmHg 20%
    17:00 +27°C° 0 mm 4 mps 698 mmHg 22%
    18:00 +26°C° 0 mm 3 mps 698 mmHg 24%
    19:00 +25°C° 0 mm 2 mps 698 mmHg 26%
    20:00 +24°C° 0 mm 2 mps 698 mmHg 28%
    21:00 +24°C° 0 mm 2 mps 698 mmHg 29%
    22:00 +23°C° 0 mm 2 mps 698 mmHg 31%
    23:00 +23°C° 0 mm 2 mps 698 mmHg 31%

    Tomorrow, 19 November, Monday

    Time Temperature Precipitation Wind Pressure Humidity
    00:00 +21°C° 0 mm 2 mps 697 mmHg 31%
    01:00 +21°C° 0 mm 2 mps 697 mmHg 31%
    02:00 +21°C° 0 mm 2 mps 697 mmHg 32%
    03:00 +20°C° 0 mm 2 mps 697 mmHg 32%
    04:00 +20°C° 0 mm 3 mps 696 mmHg 33%
    05:00 +21°C° 0 mm 3 mps 697 mmHg 31%
    06:00 +24°C° 0 mm 3 mps 697 mmHg 29%
    07:00 +25°C° 0 mm 3 mps 698 mmHg 26%
    08:00 +27°C° 0 mm 3 mps 698 mmHg 25%
    09:00 +28°C° 0 mm 4 mps 697 mmHg 24%
    10:00 +30°C° 0 mm 4 mps 697 mmHg 22%
    11:00 +32°C° 0 mm 4 mps 697 mmHg 21%
    12:00 +33°C° 0 mm 4 mps 697 mmHg 21%
    13:00 +34°C° 0 mm 4 mps 696 mmHg 20%
    14:00 +34°C° 0 mm 4 mps 696 mmHg 19%
    15:00 +34°C° 0 mm 4 mps 696 mmHg 19%
    16:00 +34°C° 0 mm 3 mps 695 mmHg 19%
    17:00 +33°C° 0 mm 3 mps 696 mmHg 21%
    18:00 +30°C° 0 mm 2 mps 696 mmHg 23%
    19:00 +29°C° 0 mm 2 mps 696 mmHg 25%
    20:00 +29°C° 0 mm 2 mps 697 mmHg 28%
    21:00 +28°C° 0 mm 3 mps 697 mmHg 31%
    22:00 +27°C° 0 mm 3 mps 697 mmHg 33%
    23:00 +27°C° 0 mm 3 mps 697 mmHg 35%

    Day after tomorrow, 20 November, Tuesday

    Time Temperature Precipitation Wind Pressure Humidity
    00:00 +26°C° 0 mm 3 mps 697 mmHg 37%
    01:00 +25°C° 0 mm 2 mps 697 mmHg 39%
    02:00 +24°C° 0 mm 2 mps 697 mmHg 40%
    03:00 +24°C° 0 mm 2 mps 697 mmHg 42%
    04:00 +23°C° 0 mm 2 mps 697 mmHg 43%
    05:00 +24°C° 0 mm 2 mps 697 mmHg 41%
    06:00 +26°C° 0 mm 2 mps 698 mmHg 38%
    07:00 +27°C° 0 mm 2 mps 698 mmHg 36%
    08:00 +29°C° 0 mm 2 mps 698 mmHg 34%
    09:00 +30°C° 0 mm 2 mps 699 mmHg 32%
    10:00 +31°C° 0 mm 3 mps 699 mmHg 29%
    11:00 +33°C° 0 mm 3 mps 698 mmHg 28%
    12:00 +34°C° 0 mm 4 mps 698 mmHg 26%
    13:00 +35°C° 0 mm 4 mps 697 mmHg 24%
    14:00 +36°C° 0 mm 4 mps 697 mmHg 23%
    15:00 +36°C° 0 mm 4 mps 696 mmHg 22%
    16:00 +36°C° 0 mm 4 mps 696 mmHg 22%
    17:00 +35°C° 0 mm 4 mps 696 mmHg 23%
    18:00 +34°C° 0 mm 3 mps 696 mmHg 25%
    19:00 +31°C° 0 mm 3 mps 697 mmHg 26%
    20:00 +31°C° 0 mm 3 mps 697 mmHg 27%
    21:00 +30°C° 0 mm 3 mps 697 mmHg 28%
    22:00 +29°C° 0 mm 3 mps 697 mmHg 30%
    23:00 +29°C° 0 mm 2 mps 697 mmHg 31%

    21 November, Wednesday

    Time Temperature Precipitation Wind Pressure Humidity
    00:00 +28°C° 0 mm 2 mps 696 mmHg 33%
    01:00 +27°C° 0 mm 2 mps 696 mmHg 35%
    02:00 +26°C° 0 mm 2 mps 696 mmHg 35%
    03:00 +26°C° 0 mm 2 mps 696 mmHg 34%
    04:00 +25°C° 0 mm 2 mps 696 mmHg 34%
    05:00 +27°C° 0 mm 2 mps 696 mmHg 33%
    06:00 +29°C° 0 mm 2 mps 696 mmHg 31%
    07:00 +30°C° 0 mm 2 mps 697 mmHg 29%
    08:00 +32°C° 0 mm 2 mps 697 mmHg 26%
    09:00 +34°C° 0 mm 3 mps 696 mmHg 23%
    10:00 +36°C° 0 mm 3 mps 696 mmHg 21%
    11:00 +37°C° 0 mm 3 mps 696 mmHg 20%
    12:00 +38°C° 0 mm 4 mps 695 mmHg 19%
    13:00 +38°C° 0 mm 4 mps 695 mmHg 17%
    14:00 +38°C° 0 mm 4 mps 694 mmHg 17%
    15:00 +38°C° 0 mm 3 mps 694 mmHg 17%
    16:00 +39°C° 0 mm 3 mps 694 mmHg 17%
    17:00 +37°C° 0 mm 3 mps 694 mmHg 19%
    18:00 +36°C° 0 mm 2 mps 694 mmHg 21%
    19:00 +35°C° 0 mm 2 mps 695 mmHg 23%
    20:00 +34°C° 0 mm 2 mps 695 mmHg 23%
    21:00 +33°C° 0 mm 3 mps 695 mmHg 23%
    22:00 +33°C° 0 mm 3 mps 695 mmHg 24%
    23:00 +31°C° 0.1 mm 3 mps 695 mmHg 24%

    22 November, Thursday

    Time Temperature Precipitation Wind Pressure Humidity
    00:00 +30°C° 0.1 mm 4 mps 695 mmHg 24%
    01:00 +29°C° 0.1 mm 4 mps 695 mmHg 24%
    02:00 +27°C° 1.1 mm 6 mps 695 mmHg 36%
    03:00 +23°C° 1.1 mm 8 mps 696 mmHg 48%
    04:00 +21°C° 1.1 mm 9 mps 697 mmHg 60%
    05:00 +20°C° 0.1 mm 8 mps 698 mmHg 57%
    06:00 +18°C° 0.1 mm 8 mps 699 mmHg 55%
    07:00 +18°C° 0.1 mm 7 mps 701 mmHg 53%
    08:00 +19°C° 0 mm 6 mps 701 mmHg 47%
    09:00 +20°C° 0 mm 6 mps 701 mmHg 42%
    10:00 +21°C° 0 mm 6 mps 701 mmHg 36%
    11:00 +21°C° 0 mm 6 mps 701 mmHg 35%
    12:00 +22°C° 0 mm 5 mps 701 mmHg 33%
    13:00 +23°C° 0 mm 5 mps 700 mmHg 32%
    14:00 +23°C° 0 mm 5 mps 700 mmHg 35%
    15:00 +22°C° 0 mm 5 mps 700 mmHg 38%
    16:00 +22°C° 0 mm 5 mps 699 mmHg 40%
    17:00 +21°C° 0 mm 4 mps 700 mmHg 44%
    18:00 +20°C° 0 mm 4 mps 700 mmHg 47%
    19:00 +19°C° 0 mm 3 mps 701 mmHg 50%
    20:00 +19°C° 0 mm 3 mps 701 mmHg 50%
    21:00 +18°C° 0 mm 2 mps 701 mmHg 51%
    22:00 +18°C° 0 mm 2 mps 701 mmHg 52%
    23:00 +17°C° 0 mm 2 mps 701 mmHg 52%

    23 November, Friday

    Time Temperature Precipitation Wind Pressure Humidity
    00:00 +17°C° 0 mm 2 mps 700 mmHg 53%
    01:00 +17°C° 0 mm 2 mps 700 mmHg 53%
    02:00 +16°C° 0 mm 2 mps 699 mmHg 54%
    03:00 +16°C° 0 mm 2 mps 699 mmHg 55%
    04:00 +15°C° 0 mm 2 mps 699 mmHg 55%
    05:00 +16°C° 0 mm 2 mps 699 mmHg 52%
    06:00 +17°C° 0 mm 2 mps 699 mmHg 48%
    07:00 +18°C° 0 mm 3 mps 700 mmHg 44%
    08:00 +20°C° 0 mm 3 mps 699 mmHg 40%
    09:00 +22°C° 0 mm 3 mps 699 mmHg 35%
    10:00 +24°C° 0 mm 3 mps 699 mmHg 31%
    11:00 +25°C° 0 mm 3 mps 698 mmHg 29%
    12:00 +26°C° 0 mm 3 mps 698 mmHg 28%
    13:00 +27°C° 0 mm 3 mps 697 mmHg 27%
    14:00 +27°C° 0 mm 3 mps 697 mmHg 26%
    15:00 +28°C° 0 mm 3 mps 696 mmHg 26%
    16:00 +28°C° 0 mm 3 mps 696 mmHg 25%
    17:00 +27°C° 0 mm 2 mps 697 mmHg 27%
    18:00 +26°C° 0 mm 2 mps 697 mmHg 29%
    19:00 +26°C° 0 mm 2 mps 697 mmHg 31%
    20:00 +25°C° 0 mm 1 mps 697 mmHg 33%
    21:00 +25°C° 0 mm 1 mps 697 mmHg 34%
    22:00 +24°C° 0 mm 1 mps 698 mmHg 35%
    23:00 +24°C° 0 mm 1 mps 697 mmHg 36%
    Show more